Satellite-Ground Cal/Val Region Overpasses Predictions

Prediction of Satellite NPP Overpassing Cal/Val Region: PacNW

Region Location: (Latitude: 10.00, Longitude: 139.50) to (Latitude: 22.70, Longitude: 165.60).

Table of predicted overpasses for the next 14.0 days since TLE Epoch: 3/29/2019
Interval Starting Time Starting Location Ending Time Ending Location
1 03/29/2019 14:34:02 ( 18.34, 165.60) 03/29/2019 14:36:24 ( 10.00, 163.65)
2 03/29/2019 16:14:18 ( 22.67, 141.29) 03/29/2019 16:16:23 ( 15.34, 139.51)
3 03/30/2019 03:23:23 ( 10.01, 148.82) 03/30/2019 03:26:59 ( 22.70, 145.80)
4 03/30/2019 15:55:16 ( 22.67, 146.05) 03/30/2019 15:58:51 ( 10.05, 143.05)
5 03/31/2019 03:04:21 ( 10.02, 153.57) 03/31/2019 03:07:56 ( 22.64, 150.57)
6 03/31/2019 15:36:14 ( 22.66, 150.81) 03/31/2019 15:39:48 ( 10.04, 147.81)
7 04/01/2019 02:45:18 ( 10.03, 158.33) 04/01/2019 02:48:53 ( 22.65, 155.33)
8 04/01/2019 15:17:11 ( 22.66, 155.57) 04/01/2019 15:20:46 ( 10.03, 152.56)
9 04/02/2019 02:26:16 ( 10.03, 163.09) 04/02/2019 02:29:51 ( 22.66, 160.09)
10 04/02/2019 14:58:09 ( 22.65, 160.33) 04/02/2019 15:01:44 ( 10.03, 157.32)
11 04/03/2019 02:09:57 ( 19.67, 165.59) 04/03/2019 02:10:48 ( 22.66, 164.85)
12 04/03/2019 03:48:43 ( 10.05, 142.48) 04/03/2019 03:52:16 ( 22.56, 139.50)
13 04/03/2019 14:39:06 ( 22.64, 165.08) 04/03/2019 14:42:41 ( 10.02, 162.08)
14 04/03/2019 16:20:35 ( 22.69, 139.72) 04/03/2019 16:20:50 ( 21.81, 139.50)
15 04/04/2019 03:29:41 ( 10.06, 147.23) 04/04/2019 03:33:16 ( 22.68, 144.23)
16 04/04/2019 16:01:33 ( 22.68, 144.48) 04/04/2019 16:05:09 ( 10.00, 141.47)
17 04/05/2019 03:10:37 ( 10.01, 152.01) 04/05/2019 03:14:13 ( 22.69, 148.99)
18 04/05/2019 15:42:30 ( 22.68, 149.24) 04/05/2019 15:46:05 ( 10.06, 146.24)
19 04/06/2019 02:51:35 ( 10.02, 156.77) 04/06/2019 02:55:11 ( 22.70, 153.75)
20 04/06/2019 15:23:28 ( 22.67, 154.00) 04/06/2019 15:27:03 ( 10.05, 151.00)
21 04/07/2019 02:32:32 ( 10.03, 161.52) 04/07/2019 02:36:07 ( 22.65, 158.52)
22 04/07/2019 15:04:25 ( 22.66, 158.76) 04/07/2019 15:08:00 ( 10.04, 155.76)
23 04/08/2019 02:14:21 ( 13.03, 165.59) 04/08/2019 02:17:05 ( 22.66, 163.28)
24 04/08/2019 03:55:00 ( 10.04, 140.91) 04/08/2019 03:56:43 ( 16.10, 139.50)
25 04/08/2019 14:45:23 ( 22.65, 163.52) 04/08/2019 14:48:58 ( 10.03, 160.51)
26 04/09/2019 03:35:58 ( 10.05, 145.67) 04/09/2019 03:39:33 ( 22.68, 142.66)
27 04/09/2019 14:29:31 ( 11.43, 165.60) 04/09/2019 14:29:55 ( 10.02, 165.27)
28 04/09/2019 16:07:49 ( 22.69, 142.91) 04/09/2019 16:11:25 ( 10.01, 139.90)
29 04/10/2019 03:16:54 ( 10.00, 150.44) 04/10/2019 03:20:30 ( 22.69, 147.42)
30 04/10/2019 15:48:47 ( 22.68, 147.67) 04/10/2019 15:52:23 ( 10.00, 144.66)
31 04/11/2019 02:57:52 ( 10.02, 155.20) 04/11/2019 03:01:28 ( 22.70, 152.18)
32 04/11/2019 15:29:44 ( 22.67, 152.43) 04/11/2019 15:33:19 ( 10.05, 149.43)


NCC Satellite Cal/Val Overpasses Prediction Service
